TVF50FL LFPO-LEBL

Flight info

Callsign TVF50FL
Flight time 1h 23m
Altitude 33000
Route ERIXU DCT ETAMO DCT VALKU DCT ATSUP DCT MINSO DCT DEGOL DCT PPG DCT ALBER
Aircraft B738/M-SDE2E3FGHIRWXY/LB1

Departure

Time 2026-05-07 16:23
Airport Paris-Orly Airport (LFPO)

Arrival

Time 2026-05-07 17:46
Airport Josep Tarradellas Barcelona-El Prat Airport (LEBL)
Time Latitude Longitude Altitude Speed Heading
2026-05-07 16:00 48.72782 2.35833 298 ft 0 kts 139°
2026-05-07 16:15 48.72787 2.35827 305 ft 4 kts 134°
2026-05-07 16:15 48.72798 2.35794 314 ft 4 kts 88°
2026-05-07 16:15 48.72794 2.35762 314 ft 4 kts 75°
2026-05-07 16:16 48.72786 2.35723 316 ft 4 kts 71°
2026-05-07 16:16 48.72778 2.35684 315 ft 4 kts 80°
2026-05-07 16:16 48.72777 2.35647 316 ft 4 kts 97°
2026-05-07 16:16 48.72785 2.35610 318 ft 4 kts 128°
2026-05-07 16:17 48.72805 2.35584 318 ft 4 kts 154°
2026-05-07 16:17 48.72821 2.35574 316 ft 0 kts 165°
2026-05-07 16:19 48.72805 2.35581 318 ft 5 kts 165°
2026-05-07 16:19 48.72751 2.35602 315 ft 11 kts 165°
2026-05-07 16:19 48.72661 2.35640 319 ft 16 kts 165°
2026-05-07 16:19 48.72546 2.35687 318 ft 16 kts 165°
2026-05-07 16:20 48.72460 2.35664 319 ft 13 kts 233°
2026-05-07 16:20 48.72388 2.35628 320 ft 12 kts 164°
2026-05-07 16:20 48.72310 2.35627 317 ft 12 kts 196°
2026-05-07 16:20 48.72221 2.35605 318 ft 14 kts 172°
2026-05-07 16:21 48.72125 2.35643 318 ft 14 kts 163°
2026-05-07 16:21 48.72046 2.35719 320 ft 13 kts 130°
2026-05-07 16:21 48.71997 2.35835 321 ft 13 kts 125°
2026-05-07 16:21 48.71952 2.35919 319 ft 9 kts 91°
2026-05-07 16:22 48.71956 2.35942 320 ft 2 kts 72°
2026-05-07 16:22 48.72024 2.36305 319 ft 72 kts 74°
2026-05-07 16:22 48.72223 2.37373 320 ft 136 kts 75°
2026-05-07 16:22 48.72515 2.38992 466 ft 173 kts 75°
2026-05-07 16:23 48.72807 2.40837 1017 ft 188 kts 75°
2026-05-07 16:23 48.73101 2.42826 1805 ft 199 kts 76°
2026-05-07 16:23 48.73421 2.44902 2575 ft 205 kts 74°
2026-05-07 16:23 48.73808 2.47016 3158 ft 212 kts 72°
2026-05-07 16:24 48.74071 2.49261 3700 ft 222 kts 85°
2026-05-07 16:24 48.74127 2.51664 4201 ft 236 kts 87°
2026-05-07 16:24 48.74182 2.54195 4829 ft 244 kts 85°
2026-05-07 16:24 48.74230 2.56796 5562 ft 250 kts 97°
2026-05-07 16:25 48.73559 2.59210 6291 ft 255 kts 132°
2026-05-07 16:25 48.72077 2.60673 6944 ft 260 kts 164°
2026-05-07 16:25 48.70286 2.61147 7657 ft 263 kts 174°
2026-05-07 16:25 48.68480 2.61481 8400 ft 267 kts 173°
2026-05-07 16:26 48.66647 2.61957 9162 ft 268 kts 170°
2026-05-07 16:26 48.64785 2.62016 9827 ft 274 kts 194°
2026-05-07 16:26 48.63058 2.60763 10293 ft 282 kts 221°
2026-05-07 16:26 48.62116 2.59326 10621 ft 289 kts 230°
2026-05-07 16:27 48.60379 2.56141 11244 ft 304 kts 232°
2026-05-07 16:27 48.59025 2.53597 11718 ft 316 kts 232°
2026-05-07 16:27 48.57617 2.50978 12187 ft 327 kts 231°
2026-05-07 16:27 48.56148 2.48283 12665 ft 337 kts 231°
2026-05-07 16:28 48.54627 2.45517 13147 ft 347 kts 231°
2026-05-07 16:28 48.53057 2.42681 13631 ft 357 kts 229°
2026-05-07 16:28 48.51162 2.40205 14057 ft 367 kts 212°
2026-05-07 16:28 48.48928 2.38257 14521 ft 375 kts 211°
2026-05-07 16:29 48.46633 2.36299 14960 ft 383 kts 211°
2026-05-07 16:29 48.44296 2.34289 15395 ft 390 kts 211°
2026-05-07 16:29 48.41934 2.32237 15840 ft 395 kts 211°
2026-05-07 16:29 48.39550 2.30148 16291 ft 397 kts 211°
2026-05-07 16:30 48.37164 2.28048 16741 ft 398 kts 211°
2026-05-07 16:30 48.34779 2.25948 17216 ft 398 kts 211°
2026-05-07 16:30 48.32407 2.23864 17687 ft 399 kts 211°
2026-05-07 16:30 48.29908 2.22033 18134 ft 403 kts 198°
2026-05-07 16:31 48.27130 2.21410 18594 ft 408 kts 180°
2026-05-07 16:31 48.24298 2.21937 19052 ft 412 kts 172°
2026-05-07 16:31 48.21456 2.22689 19499 ft 416 kts 171°
2026-05-07 16:31 48.18590 2.23454 19951 ft 419 kts 171°
2026-05-07 16:32 48.15698 2.24199 20414 ft 422 kts 172°
2026-05-07 16:32 48.12791 2.24917 20878 ft 425 kts 172°
2026-05-07 16:32 48.09868 2.25625 21348 ft 427 kts 172°
2026-05-07 16:32 48.06923 2.26257 21822 ft 428 kts 175°
2026-05-07 16:33 48.03953 2.26579 22309 ft 428 kts 179°
2026-05-07 16:33 48.00971 2.26738 22805 ft 429 kts 180°
2026-05-07 16:33 47.97985 2.26848 23306 ft 430 kts 180°
2026-05-07 16:33 47.95022 2.26960 23775 ft 430 kts 180°
2026-05-07 16:34 47.92023 2.27095 24195 ft 431 kts 179°
2026-05-07 16:34 47.89027 2.27252 24622 ft 431 kts 179°
2026-05-07 16:34 47.87007 2.27368 24919 ft 431 kts 179°
2026-05-07 16:34 47.84008 2.27549 25358 ft 431 kts 179°
2026-05-07 16:35 47.81015 2.27737 25798 ft 430 kts 179°
2026-05-07 16:35 47.78026 2.27928 26222 ft 430 kts 179°
2026-05-07 16:35 47.75029 2.28120 26595 ft 431 kts 179°
2026-05-07 16:35 47.72065 2.28309 26975 ft 432 kts 179°
2026-05-07 16:36 47.69062 2.28500 27362 ft 432 kts 179°
2026-05-07 16:36 47.66014 2.28694 27758 ft 433 kts 179°
2026-05-07 16:36 47.63049 2.28882 28148 ft 433 kts 179°
2026-05-07 16:36 47.60042 2.29071 28559 ft 432 kts 179°
2026-05-07 16:37 47.57036 2.29261 28967 ft 432 kts 179°
2026-05-07 16:37 47.53995 2.29453 29386 ft 432 kts 179°
2026-05-07 16:37 47.51035 2.29639 29809 ft 431 kts 179°
2026-05-07 16:37 47.48045 2.29827 30203 ft 430 kts 179°
2026-05-07 16:38 47.45060 2.30014 30570 ft 429 kts 179°
2026-05-07 16:38 47.42085 2.30201 30936 ft 427 kts 179°
2026-05-07 16:38 47.39112 2.30387 31306 ft 426 kts 179°
2026-05-07 16:38 47.36157 2.30572 31689 ft 424 kts 179°
2026-05-07 16:39 47.33206 2.30756 32074 ft 423 kts 179°
2026-05-07 16:39 47.30273 2.30939 32470 ft 421 kts 179°
2026-05-07 16:39 47.27361 2.31121 32863 ft 418 kts 179°
2026-05-07 16:40 47.21478 2.31485 32974 ft 428 kts 179°
2026-05-07 16:40 47.15451 2.31858 32980 ft 439 kts 179°
2026-05-07 16:41 47.09280 2.32240 32980 ft 448 kts 179°
2026-05-07 16:41 47.03054 2.32626 32964 ft 450 kts 179°
2026-05-07 16:42 46.96790 2.33014 32965 ft 451 kts 179°
2026-05-07 16:42 46.90523 2.33400 32964 ft 450 kts 179°
2026-05-07 16:43 46.84278 2.34062 32943 ft 451 kts 171°
2026-05-07 16:43 46.78302 2.36897 32955 ft 452 kts 159°
2026-05-07 16:44 46.72478 2.40367 32941 ft 452 kts 159°
2026-05-07 16:44 46.66644 2.43804 32945 ft 452 kts 159°
2026-05-07 16:45 46.60806 2.47181 32937 ft 451 kts 160°
2026-05-07 16:45 46.54959 2.50534 32940 ft 451 kts 160°
2026-05-07 16:46 46.49121 2.53872 32938 ft 451 kts 160°
2026-05-07 16:46 46.43314 2.57187 32941 ft 451 kts 160°
2026-05-07 16:47 46.37473 2.60515 32937 ft 451 kts 160°
2026-05-07 16:47 46.31622 2.63841 32939 ft 452 kts 160°
2026-05-07 16:48 46.25765 2.67162 32934 ft 453 kts 160°
2026-05-07 16:48 46.19896 2.70483 32938 ft 453 kts 160°
2026-05-07 16:49 46.14026 2.73797 32929 ft 453 kts 160°
2026-05-07 16:49 46.08185 2.77088 32938 ft 454 kts 160°
2026-05-07 16:50 46.02294 2.80399 32929 ft 454 kts 160°
2026-05-07 16:50 45.96393 2.83653 32940 ft 454 kts 161°
2026-05-07 16:51 45.90456 2.86778 32946 ft 454 kts 161°
2026-05-07 16:51 45.84515 2.89904 32955 ft 455 kts 161°
2026-05-07 16:52 45.78576 2.93043 32958 ft 455 kts 161°
2026-05-07 16:52 45.72470 2.95248 32959 ft 452 kts 176°
2026-05-07 16:53 45.66209 2.95229 32949 ft 450 kts 183°
2026-05-07 16:53 45.59989 2.94962 32946 ft 450 kts 183°
2026-05-07 16:54 45.53730 2.94744 32934 ft 450 kts 183°
2026-05-07 16:54 45.47441 2.94565 32930 ft 449 kts 183°
2026-05-07 16:55 45.41192 2.94400 32914 ft 449 kts 183°
2026-05-07 16:55 45.35002 2.94236 32920 ft 448 kts 183°
2026-05-07 16:56 45.28779 2.94069 32915 ft 447 kts 183°
2026-05-07 16:56 45.19451 2.93820 32920 ft 446 kts 183°
2026-05-07 16:57 45.13234 2.93654 32912 ft 446 kts 183°
2026-05-07 16:57 45.07037 2.93489 32922 ft 445 kts 183°
2026-05-07 16:58 45.00846 2.93325 32920 ft 444 kts 184°
2026-05-07 16:58 44.94665 2.93161 32929 ft 444 kts 184°
2026-05-07 16:59 44.88488 2.92997 32932 ft 443 kts 184°
2026-05-07 16:59 44.82356 2.92797 32934 ft 443 kts 185°
2026-05-07 17:00 44.76206 2.92347 32936 ft 442 kts 186°
2026-05-07 17:00 44.70053 2.91847 32938 ft 442 kts 186°
2026-05-07 17:01 44.63911 2.91374 32932 ft 442 kts 186°
2026-05-07 17:01 44.57769 2.90921 32935 ft 442 kts 186°
2026-05-07 17:02 44.51624 2.90475 32937 ft 442 kts 186°
2026-05-07 17:02 44.45481 2.90031 32940 ft 441 kts 186°
2026-05-07 17:03 44.39349 2.89587 32941 ft 441 kts 186°
2026-05-07 17:03 44.33225 2.89144 32937 ft 440 kts 186°
2026-05-07 17:04 44.27105 2.88703 32941 ft 440 kts 186°
2026-05-07 17:04 44.21032 2.88266 32935 ft 440 kts 187°
2026-05-07 17:05 44.14933 2.87828 32940 ft 439 kts 187°
2026-05-07 17:05 44.08832 2.87390 32934 ft 438 kts 187°
2026-05-07 17:06 44.02749 2.86956 32937 ft 438 kts 187°
2026-05-07 17:06 43.96668 2.86521 32935 ft 437 kts 187°
2026-05-07 17:07 43.90599 2.86089 32948 ft 436 kts 187°
2026-05-07 17:07 43.84544 2.85658 32945 ft 435 kts 187°
2026-05-07 17:08 43.78501 2.85231 32946 ft 433 kts 187°
2026-05-07 17:08 43.75529 2.85136 32917 ft 420 kts 185°
2026-05-07 17:08 43.72655 2.85167 32927 ft 405 kts 184°
2026-05-07 17:09 43.69851 2.85237 32606 ft 403 kts 184°
2026-05-07 17:09 43.67055 2.85310 32206 ft 400 kts 184°
2026-05-07 17:09 43.64272 2.85377 31824 ft 398 kts 184°
2026-05-07 17:09 43.61535 2.85433 31461 ft 399 kts 184°
2026-05-07 17:10 43.58720 2.85482 31087 ft 399 kts 185°
2026-05-07 17:10 43.55979 2.85526 30771 ft 398 kts 185°
2026-05-07 17:10 43.53211 2.85568 30451 ft 398 kts 185°
2026-05-07 17:10 43.50444 2.85609 30133 ft 397 kts 185°
2026-05-07 17:11 43.47680 2.85649 29782 ft 397 kts 185°
2026-05-07 17:11 43.44913 2.85688 29341 ft 399 kts 185°
2026-05-07 17:11 43.42133 2.85728 28916 ft 400 kts 185°
2026-05-07 17:11 43.39348 2.85770 28500 ft 401 kts 185°
2026-05-07 17:12 43.36548 2.85810 28090 ft 403 kts 185°
2026-05-07 17:12 43.33737 2.85849 27683 ft 405 kts 184°
2026-05-07 17:12 43.30911 2.85890 27298 ft 405 kts 184°
2026-05-07 17:12 43.28089 2.85931 27000 ft 410 kts 184°
2026-05-07 17:13 43.25187 2.85968 26683 ft 424 kts 184°
2026-05-07 17:13 43.22210 2.86007 26324 ft 432 kts 184°
2026-05-07 17:13 43.19202 2.86052 25958 ft 432 kts 183°
2026-05-07 17:13 43.16206 2.86099 25608 ft 430 kts 183°
2026-05-07 17:14 43.13242 2.86147 25297 ft 421 kts 183°
2026-05-07 17:14 43.10330 2.86194 24996 ft 416 kts 183°
2026-05-07 17:14 43.07447 2.86238 24710 ft 413 kts 182°
2026-05-07 17:14 43.04576 2.86278 24424 ft 413 kts 182°
2026-05-07 17:15 43.01701 2.86318 24144 ft 412 kts 182°
2026-05-07 17:15 42.98828 2.86358 23869 ft 412 kts 182°
2026-05-07 17:15 42.95970 2.86398 23594 ft 411 kts 182°
2026-05-07 17:15 42.93145 2.86439 23268 ft 410 kts 182°
2026-05-07 17:16 42.90294 2.86481 22939 ft 409 kts 182°
2026-05-07 17:16 42.87441 2.86522 22613 ft 408 kts 182°
2026-05-07 17:16 42.84609 2.86563 22286 ft 407 kts 182°
2026-05-07 17:16 42.81776 2.86603 21960 ft 405 kts 182°
2026-05-07 17:17 42.78956 2.86644 21640 ft 404 kts 182°
2026-05-07 17:17 42.76153 2.86684 21322 ft 402 kts 182°
2026-05-07 17:17 42.73369 2.86619 21006 ft 399 kts 185°
2026-05-07 17:17 42.70606 2.86335 20698 ft 397 kts 187°
2026-05-07 17:18 42.67858 2.85971 20397 ft 396 kts 188°
2026-05-07 17:18 42.65125 2.85599 20093 ft 394 kts 188°
2026-05-07 17:18 42.62400 2.85243 19803 ft 393 kts 187°
2026-05-07 17:18 42.59685 2.84905 19553 ft 390 kts 187°
2026-05-07 17:19 42.56985 2.84581 19294 ft 389 kts 187°
2026-05-07 17:19 42.54290 2.84263 19057 ft 387 kts 187°
2026-05-07 17:19 42.51624 2.83952 18808 ft 381 kts 187°
2026-05-07 17:19 42.49003 2.83647 18566 ft 374 kts 187°
2026-05-07 17:20 42.46438 2.83347 18317 ft 366 kts 187°
2026-05-07 17:20 42.43963 2.82995 18055 ft 359 kts 190°
2026-05-07 17:20 42.41523 2.82442 17772 ft 353 kts 192°
2026-05-07 17:20 42.39120 2.81819 17496 ft 350 kts 193°
2026-05-07 17:21 42.36739 2.81192 17238 ft 349 kts 193°
2026-05-07 17:21 42.34341 2.80570 16984 ft 353 kts 192°
2026-05-07 17:21 42.31923 2.79958 16723 ft 353 kts 192°
2026-05-07 17:21 42.29515 2.79358 16457 ft 351 kts 192°
2026-05-07 17:22 42.27119 2.78769 16197 ft 349 kts 192°
2026-05-07 17:22 42.25537 2.78381 16028 ft 347 kts 192°
2026-05-07 17:22 42.23162 2.77801 15775 ft 346 kts 192°
2026-05-07 17:22 42.20800 2.77224 15524 ft 345 kts 192°
2026-05-07 17:23 42.18438 2.76647 15276 ft 344 kts 192°
2026-05-07 17:23 42.16085 2.76074 15027 ft 343 kts 192°
2026-05-07 17:23 42.13797 2.75230 14757 ft 341 kts 207°
2026-05-07 17:23 42.11876 2.73432 14523 ft 336 kts 226°
2026-05-07 17:24 42.10297 2.71122 14302 ft 335 kts 230°
2026-05-07 17:24 42.08766 2.68756 14062 ft 335 kts 230°
2026-05-07 17:24 42.07244 2.66383 13828 ft 335 kts 230°
2026-05-07 17:24 42.05716 2.64014 13566 ft 335 kts 230°
2026-05-07 17:25 42.04184 2.61656 13295 ft 335 kts 230°
2026-05-07 17:25 42.02649 2.59307 13041 ft 333 kts 230°
2026-05-07 17:25 42.01122 2.56982 12816 ft 327 kts 230°
2026-05-07 17:25 41.99630 2.54716 12605 ft 320 kts 230°
2026-05-07 17:26 41.98191 2.52534 12374 ft 313 kts 230°
2026-05-07 17:26 41.96763 2.50372 12174 ft 306 kts 230°
2026-05-07 17:26 41.95363 2.48252 11964 ft 300 kts 230°
2026-05-07 17:26 41.93991 2.46175 11755 ft 295 kts 230°
2026-05-07 17:27 41.92641 2.44133 11549 ft 289 kts 230°
2026-05-07 17:27 41.91314 2.42129 11339 ft 285 kts 230°
2026-05-07 17:27 41.90005 2.40154 11138 ft 281 kts 230°
2026-05-07 17:27 41.88714 2.38208 10931 ft 278 kts 230°
2026-05-07 17:28 41.87432 2.36276 10734 ft 277 kts 230°
2026-05-07 17:28 41.86156 2.34354 10529 ft 274 kts 230°
2026-05-07 17:28 41.84894 2.32455 10339 ft 271 kts 230°
2026-05-07 17:28 41.83641 2.30569 10152 ft 270 kts 230°
2026-05-07 17:29 41.82396 2.28697 9951 ft 268 kts 230°
2026-05-07 17:29 41.81155 2.26831 9752 ft 268 kts 230°
2026-05-07 17:29 41.79915 2.24970 9545 ft 268 kts 230°
2026-05-07 17:29 41.78670 2.23102 9340 ft 270 kts 230°
2026-05-07 17:30 41.77401 2.21234 9127 ft 272 kts 224°
2026-05-07 17:30 41.75777 2.19934 8915 ft 275 kts 201°
2026-05-07 17:30 41.73947 2.19181 8725 ft 276 kts 197°
2026-05-07 17:30 41.72088 2.18520 8516 ft 276 kts 196°
2026-05-07 17:31 41.70244 2.17854 8307 ft 273 kts 197°
2026-05-07 17:31 41.68428 2.17181 8093 ft 270 kts 197°
2026-05-07 17:31 41.66628 2.16509 7891 ft 267 kts 198°
2026-05-07 17:31 41.64836 2.15833 7682 ft 267 kts 197°
2026-05-07 17:32 41.63054 2.15160 7480 ft 266 kts 197°
2026-05-07 17:32 41.61280 2.14489 7286 ft 265 kts 197°
2026-05-07 17:32 41.59505 2.13817 7092 ft 265 kts 197°
2026-05-07 17:32 41.57735 2.13148 6892 ft 265 kts 197°
2026-05-07 17:33 41.55963 2.12478 6700 ft 264 kts 197°
2026-05-07 17:33 41.54224 2.11821 6511 ft 265 kts 197°
2026-05-07 17:33 41.52465 2.10977 6293 ft 264 kts 214°
2026-05-07 17:33 41.51162 2.09295 6098 ft 260 kts 236°
2026-05-07 17:34 41.50195 2.07261 5908 ft 260 kts 240°
2026-05-07 17:34 41.49265 2.05193 5705 ft 260 kts 240°
2026-05-07 17:34 41.48338 2.03121 5503 ft 260 kts 239°
2026-05-07 17:34 41.47404 2.01048 5302 ft 261 kts 239°
2026-05-07 17:35 41.46466 1.98976 5103 ft 260 kts 239°
2026-05-07 17:35 41.45546 1.96953 5043 ft 255 kts 239°
2026-05-07 17:35 41.44635 1.94961 5065 ft 250 kts 239°
2026-05-07 17:35 41.43725 1.92974 5075 ft 253 kts 239°
2026-05-07 17:36 41.42799 1.90955 5087 ft 258 kts 239°
2026-05-07 17:36 41.41862 1.88914 5080 ft 258 kts 238°
2026-05-07 17:36 41.40923 1.86874 5073 ft 257 kts 239°
2026-05-07 17:36 41.39992 1.84850 5069 ft 256 kts 238°
2026-05-07 17:37 41.39059 1.82826 5069 ft 255 kts 238°
2026-05-07 17:37 41.38131 1.80813 5067 ft 255 kts 238°
2026-05-07 17:37 41.37205 1.78807 5076 ft 254 kts 238°
2026-05-07 17:37 41.36277 1.76800 5077 ft 255 kts 238°
2026-05-07 17:38 41.35327 1.74831 5066 ft 249 kts 230°
2026-05-07 17:38 41.33973 1.73518 5083 ft 238 kts 200°
2026-05-07 17:38 41.32351 1.73228 5076 ft 236 kts 174°
2026-05-07 17:38 41.30778 1.73778 5019 ft 232 kts 158°
2026-05-07 17:39 41.29307 1.74633 4707 ft 228 kts 155°
2026-05-07 17:39 41.27839 1.75344 4391 ft 222 kts 170°
2026-05-07 17:39 41.26420 1.76009 4062 ft 217 kts 144°
2026-05-07 17:39 41.25259 1.77200 3793 ft 212 kts 142°
2026-05-07 17:40 41.24095 1.78388 3487 ft 209 kts 142°
2026-05-07 17:40 41.22943 1.79555 3184 ft 207 kts 143°
2026-05-07 17:40 41.21885 1.80782 3002 ft 195 kts 124°
2026-05-07 17:40 41.21636 1.82400 2981 ft 173 kts 77°
2026-05-07 17:41 41.21942 1.83912 2994 ft 169 kts 75°
2026-05-07 17:41 41.22274 1.85399 2990 ft 167 kts 73°
2026-05-07 17:41 41.22644 1.86861 2992 ft 167 kts 70°
2026-05-07 17:41 41.23079 1.88292 2995 ft 168 kts 68°
2026-05-07 17:42 41.23551 1.89729 2863 ft 172 kts 67°
2026-05-07 17:42 41.24039 1.91176 2628 ft 168 kts 66°
2026-05-07 17:42 41.24504 1.92548 2399 ft 159 kts 67°
2026-05-07 17:42 41.24953 1.93869 2235 ft 155 kts 67°
2026-05-07 17:43 41.25389 1.95153 2005 ft 151 kts 68°
2026-05-07 17:43 41.25816 1.96411 1811 ft 149 kts 68°
2026-05-07 17:43 41.26246 1.97677 1607 ft 151 kts 68°
2026-05-07 17:43 41.26674 1.98939 1407 ft 148 kts 66°
2026-05-07 17:44 41.27096 2.00177 1198 ft 146 kts 66°
2026-05-07 17:44 41.27519 2.01395 963 ft 144 kts 66°
2026-05-07 17:44 41.27924 2.02596 805 ft 140 kts 68°
2026-05-07 17:44 41.28322 2.03778 587 ft 140 kts 67°
2026-05-07 17:45 41.28713 2.04941 392 ft 137 kts 67°
2026-05-07 17:45 41.29103 2.06080 224 ft 135 kts 68°
2026-05-07 17:45 41.29489 2.07209 60 ft 133 kts 66°
2026-05-07 17:45 41.29840 2.08230 20 ft 102 kts 64°
2026-05-07 17:46 41.30044 2.08825 20 ft 48 kts 65°
2026-05-07 17:46 41.30147 2.09124 17 ft 32 kts 65°
2026-05-07 17:46 41.30250 2.09363 16 ft 26 kts 50°
2026-05-07 17:46 41.30369 2.09506 17 ft 19 kts 34°
2026-05-07 17:47 41.30449 2.09526 17 ft 11 kts 339°
2026-05-07 17:47 41.30500 2.09461 20 ft 11 kts 277°
2026-05-07 17:47 41.30477 2.09366 18 ft 12 kts 246°
2026-05-07 17:47 41.30434 2.09240 19 ft 18 kts 245°
2026-05-07 17:48 41.30376 2.09070 18 ft 21 kts 246°
2026-05-07 17:48 41.30316 2.08896 17 ft 20 kts 245°
2026-05-07 17:48 41.30259 2.08727 19 ft 20 kts 245°
2026-05-07 17:48 41.30202 2.08564 18 ft 19 kts 246°
2026-05-07 17:49 41.30149 2.08406 19 ft 18 kts 245°
2026-05-07 17:49 41.30096 2.08253 18 ft 18 kts 245°
2026-05-07 17:49 41.30046 2.08106 17 ft 17 kts 245°
2026-05-07 17:49 41.30037 2.07995 16 ft 12 kts 316°
2026-05-07 17:50 41.30108 2.07939 17 ft 12 kts 311°
2026-05-07 17:50 41.30172 2.07889 18 ft 11 kts
2026-05-07 17:50 41.30224 2.07919 20 ft 6 kts 25°
2026-05-07 17:50 41.30237 2.07927 21 ft 0 kts 25°